Wetbulb
44.33 39.59 37.34 39.40 40.79 39.99 38.56 37.01 36.29 39.31 41.90 40.60 40.15 40.68 43.02 46.40 47.77 48.98 50.91 52.77 53.64 54.94 57.76 58.44 59.81 61.82 62.47 66.50 69.68 73.08 72.05 73.23 73.21 71.95 71.53 71.43 70.97 72.50 72.72 73.17 73.37 73.29 72.65 71.87
40.37 37.07 41.26 41.44 40.68 39.17 38.19 36.50 36.36 39.39 41.45 40.73 39.96 39.59 42.48 44.29 44.80 46.15 47.55 50.36 53.12 54.53 56.24 58.46 60.26 61.10 63.58 64.44 68.89 71.07 71.97 71.97 72.42 72.64 72.26 72.84 72.56 72.90 72.30 73.28 73.46 73.67 72.94 72.89
35.85 38.22 41.27 39.44 38.31 36.88 37.40 35.80 36.44 36.53 40.03 41.39 39.63 37.74 40.04 43.24 44.82 45.74 47.16 48.51 50.72 53.70 54.88 56.93 58.24 60.21 62.09 63.40 69.05 70.03 71.47 70.97 71.30 73.06 72.68 72.73 72.58 72.27 71.15 71.83 72.45 72.88 73.19 73.09
37.02 40.39 38.33 37.47 36.11 37.64 33.54 38.79 37.72 36.93 35.78 31.61 40.06 30.88 38.81 41.82 42.64 44.31 45.29 46.70 48.42 50.51 53.10 55.55 57.66 58.94 61.93 65.18 69.59 70.65 71.55 71.07 70.63 71.87 72.12 71.52 70.69 69.48 71.18 71.68 71.69 71.85 73.24 73.18
34.64 36.42 35.71 35.43 35.91 38.29 35.27 39.59 37.92 37.35 35.48 35.11 35.22 33.12 37.10 41.69 40.43 42.41 44.91 47.22 48.32 49.43 51.85 52.99 55.31 58.46 59.99 64.05 70.13 72.01 72.11 71.19 70.99 70.96 72.80 72.18 71.53 71.72 71.99 71.24 70.61 70.90 72.41 73.66
37.80 41.84 39.12 37.70 39.44 39.59 40.98 37.93 37.86 37.73 35.72 27.27 33.65 33.50 34.44 38.28 40.72 43.10 45.05 46.13 48.77 50.85 52.81 53.70 54.95 56.92 59.40 64.65 71.00 72.16 71.37 71.22 70.68 71.64 72.50 73.17 72.23 71.52 70.56 70.46 70.13 69.99 70.74 72.96
34.95 35.61 39.71 40.05 35.66 39.21 37.80 33.95 26.33 25.04 26.11 25.90 36.25 34.28 37.05 42.07 44.97 45.39 45.99 47.68 49.22 48.88 51.60 54.22 54.36 54.71 58.46 60.94 68.03 71.52 70.91 70.49 72.56 72.20 72.87 72.69 72.68 72.20 71.01 70.38 69.91 70.01 69.89 70.84
27.94 26.11 32.48 37.74 35.76 33.09 34.74 33.54 26.17 18.81 21.22 26.22 35.32 30.40 37.27 43.43 45.31 46.41 47.50 48.46 50.58 51.33 52.91 52.47 53.78 55.94 56.37 60.34 62.56 69.97 69.78 70.46 71.40 72.83 72.70 72.52 73.21 72.30 71.53 70.86 70.36 70.27 70.59 70.55
26.33 27.00 36.61 36.86 38.75 37.75 33.61 30.07 36.00 28.30 30.28 27.05 31.49 36.44 40.46 41.61 42.18 43.81 45.19 46.82 47.19 48.58 49.81 51.57 55.92 55.42 57.24 59.19 61.76 65.00 69.64 70.30 70.69 72.21 72.77 72.40 72.07 72.24 71.43 71.67 71.07 70.17 71.34 71.46
30.14 23.09 32.75 35.69 38.61 38.34 36.04 37.82 28.50 30.24 19.89 19.45 27.79 29.56 31.20 35.72 38.50 41.14 42.91 44.08 45.58 45.95 47.86 50.69 52.85 57.19 56.83 58.68 60.77 64.74 67.15 69.71 70.22 71.59 72.29 72.09 71.56 72.19 72.08 71.96 71.37 70.95 70.60 72.08
32.73 27.77 27.61 32.75 31.45 30.36 32.79 31.00 29.67 30.62 28.71 22.33 21.08 27.43 38.59 37.15 37.94 39.82 42.55 44.55 45.21 44.51 45.54 48.76 50.78 56.90 57.93 58.94 60.60 62.50 63.74 69.18 69.81 70.25 71.43 72.27 72.32 72.10 72.38 72.67 72.15 71.60 71.90 71.89
32.63 28.52 22.17 26.78 34.36 36.22 35.39 30.83 30.19 23.93 21.91 24.86 25.60 27.12 40.17 39.55 41.15 42.95 42.77 45.07 45.44 42.79 43.89 47.97 50.37 56.48 56.73 58.12 58.55 60.26 63.56 64.54 69.32 70.49 70.99 71.09 72.39 72.64 72.03 72.06 72.59 72.54 71.83 72.12
31.98 25.88 19.57 23.40 31.13 33.68 28.82 30.95 31.67 28.99 27.61 23.95 21.95 26.98 39.66 40.93 41.94 42.80 42.46 44.26 43.81 41.85 43.07 46.08 48.85 55.09 55.37 55.73 58.34 60.96 61.63 62.51 67.95 69.78 70.45 70.48 70.67 71.55 71.93 72.20 72.46 73.02 72.18 71.96
34.15 27.18 22.43 18.43 22.91 28.30 24.01 27.42 29.08 26.82 22.23 23.83 25.58 29.09 35.06 38.42 38.41 41.00 41.92 42.82 41.74 40.34 41.77 43.53 44.99 50.60 54.81 56.21 56.98 58.78 60.30 62.70 62.15 66.10 70.38 70.52 69.69 69.94 71.89 72.52 73.20 72.82 72.90 71.94
31.93 23.56 25.58 26.15 28.23 28.32 27.05 26.53 27.78 25.47 26.36 22.84 27.81 29.57 34.26 37.68 39.24 39.83 41.57 41.56 40.15 39.89 40.12 41.23 43.21 44.08 49.67 53.12 54.45 55.51 56.97 59.34 61.43 62.14 62.90 69.55 70.53 70.49 70.23 72.24 72.43 73.01 72.76 72.82
32.00 23.76 26.19 23.55 27.81 27.86 25.62 28.91 29.64 29.60 30.01 30.33 31.40 31.76 38.66 40.59 41.35 38.97 41.01 41.16 40.54 40.01 39.90 40.49 42.40 43.36 44.68 46.67 50.27 49.91 50.07 53.03 57.69 60.76 62.29 62.84 67.75 70.44 70.90 71.36 71.89 71.86 71.60 71.93
29.36 27.12 23.79 20.16 26.97 26.16 21.27 27.34 29.73 30.44 32.22 32.22 29.54 34.08 38.96 38.53 38.90 38.48 40.37 40.99 40.90 40.97 40.51 41.31 42.04 42.45 44.13 45.47 47.41 47.89 48.53 49.48 50.68 53.43 56.65 60.23 62.14 63.07 69.65 70.82 70.69 71.11 71.30 71.52
28.91 27.40 26.49 22.07 24.27 15.33 28.79 34.46 34.74 32.73 34.64 34.85 35.10 36.79 37.44 38.09 39.77 39.01 41.78 41.10 40.07 41.75 43.43 43.63 43.41 43.38 44.06 45.07 46.58 47.61 47.90 47.49 47.46 48.00 49.48 52.96 55.71 58.70 62.57 66.34 68.91 69.66 70.54 70.92
34.66 29.98 24.89 21.54 20.62 25.28 28.91 32.83 31.77 30.96 29.84 36.49 35.60 37.49 38.53 39.38 40.11 38.88 42.28 42.92 41.66 42.08 44.00 44.95 46.37 45.77 44.65 44.55 45.18 46.02 45.26 45.86 45.85 45.95 47.06 48.97 51.55 53.68 56.40 60.55 64.11 69.03 69.23 69.99
33.97 33.56 27.24 24.88 18.74 16.46 26.38 33.82 38.02 37.38 27.22 36.73 37.32 37.39 36.97 37.65 31.36 36.37 41.50 42.16 41.81 43.16 43.13 43.84 46.46 46.72 46.93 45.99 45.66 44.30 44.43 43.99 43.97 45.37 46.44 47.97 49.85 50.56 51.71 53.10 57.31 63.18 68.16 68.91
26.95 27.62 24.25 24.44 22.02 26.63 35.07 36.92 38.68 25.65 26.47 36.80 38.44 38.40 38.20 36.59 37.21 38.94 42.47 40.77 42.61 42.34 41.94 42.67 43.85 44.00 44.12 46.27 46.90 44.87 43.52 43.25 44.50 45.29 46.30 47.28 48.68 49.10 50.28 50.49 52.90 54.77 59.44 66.01
26.11 24.91 24.68 25.85 22.06 19.37 37.59 36.75 29.97 35.30 39.07 39.13 39.31 39.62 38.82 39.45 39.67 39.64 41.31 41.45 41.78 41.02 41.25 42.11 41.78 43.05 43.72 43.74 42.67 42.11 42.24 43.45 43.85 44.10 44.57 45.19 46.74 48.06 49.81 48.34 49.06 50.27 50.81 52.96
25.62 30.69 27.57 28.06 28.47 36.56 38.77 38.08 40.47 40.51 39.35 40.06 40.13 40.45 40.50 38.92 39.47 39.46 40.74 41.46 41.38 41.12 41.45 42.20 41.68 41.81 42.39 43.27 42.46 40.45 41.20 42.07 41.80 42.62 43.46 43.96 45.30 45.35 48.28 47.82 46.26 46.77 46.93 45.61
33.39 36.40 31.07 30.59 34.11 36.27 38.14 39.95 41.10 41.29 40.68 41.18 42.65 41.58 41.43 39.91 40.45 39.99 41.16 41.66 41.42 41.81 41.26 41.32 41.18 40.20 40.20 41.66 41.66 41.50 41.95 41.32 40.40 40.70 42.03 43.19 43.89 43.04 45.26 47.82 45.80 45.00 43.99 42.25
33.26 34.71 31.99 31.61 35.11 36.76 38.56 39.63 40.67 41.08 40.89 40.61 41.85 42.29 41.60 41.02 40.55 40.92 41.27 41.31 41.23 41.24 41.43 40.95 39.74 39.58 39.21 40.22 40.60 41.48 40.81 40.31 38.90 38.66 40.55 42.75 42.94 42.82 43.62 43.81 44.94 43.37 42.63 38.63
34.61 32.56 29.92 29.36 36.82 36.61 37.29 40.36 41.14 39.69 39.59 40.11 39.70 39.70 41.37 41.35 40.63 41.01 40.34 41.07 41.02 40.32 41.11 40.69 40.25 39.92 38.85 39.14 39.32 39.95 40.02 39.57 38.83 37.88 38.31 39.75 41.06 41.29 42.77 41.68 40.70 38.40 36.33 35.72
MSLP
1014.95 1014.72 1012.96 1012.34 1011.99 1011.46 1010.89 1010.06 1008.54 1007.65 1007.14 1006.64 1005.31 1004.29 1003.88 1003.88 1003.70 1003.13 1002.37 1001.69 1001.34 1000.68 1000.21 1000.19 1000.34 1000.26 1000.55 1000.99 1002.09 1003.57 1004.96 1006.19 1007.37 1008.14 1008.57 1008.83 1009.15 1009.79 1010.56 1010.98 1011.85 1012.87 1013.75 1014.26
1014.89 1013.98 1013.50 1013.62 1013.39 1012.62 1011.78 1010.67 1009.39 1008.44 1007.88 1007.31 1005.94 1004.66 1004.27 1004.26 1003.57 1003.30 1002.92 1002.23 1001.34 1000.86 1000.14 999.26 999.54 999.87 999.94 1000.23 1001.03 1002.51 1003.96 1005.36 1006.41 1007.24 1007.62 1007.85 1008.47 1009.08 1009.91 1010.49 1011.12 1012.13 1013.24 1013.56
1015.41 1014.77 1014.08 1014.27 1013.57 1012.78 1012.01 1011.07 1010.01 1009.02 1008.23 1007.54 1006.75 1004.99 1004.48 1004.10 1003.74 1003.18 1002.51 1002.05 1001.72 1000.98 1000.57 999.77 999.35 999.18 999.49 999.68 1000.24 1001.64 1003.10 1004.40 1005.53 1006.39 1007.23 1007.79 1008.17 1008.74 1009.24 1009.76 1010.45 1011.36 1012.26 1012.88
1015.93 1014.84 1014.60 1014.22 1013.47 1013.05 1012.20 1011.88 1011.08 1010.02 1009.11 1007.42 1006.79 1004.05 1003.12 1002.36 1001.45 1001.03 1001.10 1001.18 1001.17 1000.97 1000.95 1000.46 999.58 998.66 998.69 999.04 999.81 1001.03 1002.23 1003.38 1004.82 1005.70 1006.01 1006.24 1006.23 1006.83 1007.53 1008.57 1009.99 1010.75 1011.40 1011.93
1016.44 1015.56 1014.86 1013.88 1013.57 1013.50 1012.91 1012.43 1011.81 1010.98 1009.73 1008.45 1007.06 1005.19 1003.04 1002.40 1001.26 1001.01 1000.67 1000.10 999.69 1000.03 1000.16 1000.04 999.81 998.94 997.94 998.22 999.23 1000.39 1001.47 1002.46 1003.50 1004.66 1005.08 1005.29 1005.42 1005.86 1006.76 1008.35 1009.62 1010.54 1010.63 1010.97
1016.16 1015.46 1015.27 1014.55 1014.03 1013.66 1013.01 1012.73 1011.78 1010.69 1009.53 1008.45 1006.92 1005.43 1003.15 1001.97 1000.93 1000.09 999.68 999.76 999.56 999.47 999.23 999.27 999.21 998.93 997.87 997.53 998.37 999.54 1000.62 1001.13 1002.37 1003.12 1004.10 1004.13 1004.51 1004.88 1005.87 1007.16 1008.07 1009.12 1009.86 1009.86
1016.75 1015.64 1014.78 1015.33 1014.99 1013.99 1013.88 1013.40 1012.18 1010.33 1008.90 1007.71 1006.13 1004.39 1002.39 1001.40 1001.33 1000.62 1000.44 1000.10 999.52 999.22 999.01 998.40 998.14 998.06 997.55 997.04 997.31 998.56 999.79 1000.29 1000.86 1001.83 1002.72 1003.41 1003.80 1004.35 1004.77 1005.72 1006.65 1007.58 1008.38 1008.62
1017.93 1016.63 1017.18 1016.45 1015.23 1014.42 1013.60 1013.53 1013.72 1012.12 1010.42 1008.52 1006.52 1004.56 1003.71 1003.91 1003.98 1003.66 1003.49 1003.22 1002.52 1001.92 1001.02 999.21 998.65 997.77 997.27 996.98 996.81 997.35 998.40 999.50 999.86 1000.56 1001.41 1002.47 1003.00 1003.64 1003.97 1004.66 1005.35 1005.96 1006.52 1007.39
1020.06 1018.04 1016.90 1016.41 1015.04 1014.88 1014.18 1014.28 1014.42 1013.72 1012.22 1010.17 1007.00 1004.92 1004.88 1005.84 1005.03 1004.53 1004.18 1004.40 1004.55 1004.13 1003.11 1001.71 999.47 998.01 997.24 996.46 996.59 996.52 997.16 998.28 999.26 999.66 1000.49 1001.41 1002.29 1002.92 1003.28 1003.52 1004.20 1004.90 1005.31 1006.02
1021.57 1019.76 1018.41 1016.49 1016.13 1015.03 1015.17 1015.19 1015.30 1014.47 1013.30 1010.93 1007.95 1006.71 1006.34 1006.07 1006.32 1005.22 1004.98 1005.51 1005.63 1005.57 1004.71 1003.18 1001.20 998.81 997.03 996.09 995.68 995.83 996.35 997.13 998.09 998.94 999.71 1000.47 1001.02 1001.81 1002.31 1003.00 1003.22 1003.81 1004.45 1005.04
1021.86 1021.58 1019.56 1018.38 1016.73 1015.76 1015.66 1015.99 1017.28 1016.38 1015.21 1013.01 1010.40 1007.56 1006.59 1007.66 1006.84 1005.59 1005.96 1006.17 1006.69 1006.78 1006.19 1004.43 1002.37 999.11 997.67 996.08 995.33 995.34 995.75 996.09 996.97 997.96 998.56 999.33 999.96 1000.77 1001.62 1001.77 1002.25 1002.82 1003.47 1004.18
1022.16 1022.22 1020.56 1018.72 1017.27 1016.53 1016.16 1017.81 1017.96 1017.76 1016.56 1015.38 1012.91 1009.05 1007.30 1007.04 1006.53 1006.54 1006.79 1006.76 1007.45 1007.94 1007.35 1005.57 1002.98 999.46 997.61 996.50 995.51 994.99 994.99 995.42 995.93 996.73 997.64 998.27 998.95 999.82 1000.49 1000.73 1000.98 1001.82 1002.43 1003.11
1022.83 1022.39 1021.35 1018.97 1016.97 1017.89 1018.74 1019.14 1019.63 1019.46 1018.31 1015.66 1013.39 1009.96 1008.74 1008.38 1008.09 1007.93 1008.07 1007.85 1008.20 1008.38 1007.72 1005.96 1003.30 1000.30 999.15 998.06 996.81 995.59 995.01 995.01 995.18 995.89 996.82 997.69 998.40 999.16 999.36 999.58 1000.15 1000.65 1001.46 1002.08
1022.75 1022.69 1022.42 1021.09 1019.71 1019.26 1018.87 1018.73 1018.95 1018.88 1017.81 1015.61 1013.33 1011.03 1009.26 1009.56 1009.43 1009.27 1009.41 1009.04 1009.41 1009.29 1008.40 1006.96 1004.90 1002.60 1000.39 999.62 998.78 997.82 997.11 996.54 995.85 995.65 995.93 996.84 997.74 998.02 998.19 998.58 999.07 999.73 1000.17 1000.79
1021.92 1022.22 1022.06 1021.30 1020.13 1019.06 1017.93 1017.26 1016.88 1016.76 1016.29 1015.70 1012.58 1011.27 1009.56 1010.10 1009.59 1009.97 1009.99 1009.86 1009.71 1009.59 1009.05 1008.12 1006.37 1004.74 1002.60 1001.13 1000.50 999.91 999.61 999.23 998.44 997.09 996.39 995.84 996.59 997.32 997.61 997.94 998.26 998.68 999.32 999.75
1021.73 1021.79 1021.64 1020.32 1019.57 1018.27 1016.90 1016.04 1015.18 1014.59 1014.05 1013.24 1011.94 1010.28 1010.32 1009.86 1010.34 1010.85 1010.21 1009.83 1009.97 1009.64 1009.21 1008.53 1007.53 1006.22 1005.09 1004.19 1002.83 1002.66 1002.22 1001.30 1000.06 998.87 997.64 996.72 996.05 996.24 996.87 997.22 997.59 998.27 998.57 998.99
1021.10 1021.16 1021.12 1019.29 1018.43 1017.22 1015.60 1014.28 1013.15 1012.76 1012.56 1011.90 1011.37 1011.58 1010.81 1010.98 1011.02 1011.39 1010.39 1009.57 1009.56 1009.30 1009.18 1008.60 1008.19 1007.54 1006.66 1005.77 1004.91 1004.06 1003.33 1002.53 1001.60 1000.67 999.75 998.48 997.41 996.89 996.22 996.65 997.14 997.47 997.84 998.38
1020.37 1020.45 1020.43 1018.95 1017.97 1016.07 1013.44 1012.41 1011.74 1011.70 1011.80 1012.69 1012.14 1011.47 1011.67 1012.05 1011.66 1012.02 1010.50 1010.05 1009.86 1009.45 1008.76 1008.48 1008.39 1008.05 1007.76 1007.05 1005.92 1004.82 1004.02 1003.28 1002.53 1001.80 1001.08 1000.35 999.62 998.67 997.31 996.55 996.48 996.96 997.27 997.56
1018.92 1019.44 1019.38 1018.40 1016.70 1014.85 1013.14 1012.58 1013.00 1012.20 1012.52 1012.57 1012.02 1011.53 1011.78 1012.06 1011.03 1010.91 1010.89 1010.50 1009.90 1009.09 1008.19 1008.14 1008.16 1007.86 1007.88 1007.58 1006.81 1005.76 1004.82 1004.14 1003.47 1002.95 1002.28 1001.54 1000.84 1000.10 999.21 997.96 996.93 996.56 996.83 997.00
1018.31 1018.74 1018.76 1017.75 1016.61 1014.25 1014.24 1013.22 1012.33 1011.42 1011.55 1012.39 1012.12 1011.70 1011.81 1012.47 1012.17 1011.89 1011.60 1010.99 1010.02 1008.95 1008.54 1007.91 1007.54 1007.31 1007.24 1007.47 1007.12 1006.32 1005.55 1004.82 1004.47 1004.17 1003.42 1002.62 1001.79 1001.10 1000.44 999.78 998.72 997.65 996.64 996.50
1017.55 1017.93 1017.73 1016.88 1015.91 1013.87 1012.26 1012.09 1011.56 1011.10 1012.86 1012.18 1011.99 1011.99 1012.07 1012.81 1013.32 1012.85 1011.84 1010.72 1009.60 1008.83 1008.41 1008.11 1007.42 1006.89 1007.01 1006.86 1006.99 1006.48 1006.26 1005.71 1005.38 1004.86 1004.18 1003.42 1002.72 1001.91 1001.23 1000.46 999.82 999.11 998.10 996.82
1016.79 1016.39 1016.21 1016.13 1015.07 1013.47 1013.00 1012.28 1012.11 1011.97 1011.52 1011.71 1011.60 1011.61 1011.89 1012.58 1012.92 1012.76 1011.51 1010.00 1009.27 1008.86 1008.65 1008.34 1007.76 1007.12 1007.04 1007.22 1006.88 1006.69 1006.60 1006.41 1006.10 1005.21 1004.65 1004.30 1003.35 1002.53 1001.75 1001.06 1000.60 999.98 999.41 998.65
1016.20 1015.82 1015.82 1015.86 1014.15 1013.35 1012.81 1012.08 1011.76 1011.70 1011.57 1011.61 1011.32 1011.30 1011.43 1011.79 1011.81 1012.19 1010.87 1009.90 1009.35 1009.00 1008.64 1008.37 1008.03 1007.80 1007.58 1007.24 1007.12 1006.92 1006.94 1006.86 1006.42 1005.81 1005.10 1004.37 1003.91 1003.14 1002.15 1001.59 1001.46 1000.97 1000.53 999.99
1015.21 1014.83 1014.76 1014.95 1013.67 1012.51 1012.07 1011.90 1011.63 1011.72 1011.53 1011.67 1011.30 1010.96 1010.99 1011.20 1011.26 1011.03 1010.29 1009.76 1009.28 1008.97 1008.98 1008.84 1008.69 1008.49 1008.17 1007.86 1007.64 1007.35 1007.25 1007.37 1006.91 1006.38 1005.33 1005.01 1004.49 1003.69 1002.53 1001.90 1001.94 1001.95 1001.44 1001.05
1015.34 1014.63 1014.06 1013.50 1012.84 1012.33 1011.93 1011.80 1011.63 1011.64 1011.97 1012.03 1011.58 1011.02 1010.87 1011.09 1011.14 1011.05 1010.63 1010.13 1009.82 1009.75 1009.38 1009.46 1009.48 1009.22 1009.04 1008.62 1008.14 1007.76 1007.56 1007.58 1007.29 1007.09 1006.05 1005.41 1005.01 1004.37 1003.41 1002.76 1002.77 1002.25 1001.99 1002.40
1015.07 1013.97 1013.45 1012.44 1011.85 1012.17 1011.44 1011.52 1011.97 1012.15 1012.23 1012.35 1012.22 1011.91 1011.44 1011.31 1011.28 1011.28 1011.12 1010.79 1010.61 1010.57 1010.28 1009.94 1009.78 1009.69 1009.52 1009.00 1008.54 1008.09 1007.73 1007.61 1007.16 1006.83 1006.46 1006.31 1005.62 1004.55 1003.77 1003.31 1002.66 1002.27 1002.59 1002.45
Wind_Speed
8 11 12 17 16 17 17 20 24 24 24 24 25 28 26 24 24 24 23 20 22 23 23 28 27 21 23 20 21 23 22 23 17 15 15 14 14 14 13 13 16 16 15 17
12 12 10 10 13 15 17 20 21 23 22 22 25 28 28 26 27 25 27 26 23 22 23 19 17 20 18 20 20 24 25 22 20 16 15 13 13 13 14 12 14 15 16 16
14 15 14 9 15 15 17 19 20 22 22 23 23 28 28 29 28 28 27 26 28 24 24 23 23 20 19 21 18 22 25 22 21 22 15 14 13 11 12 13 12 14 17 17
11 12 8 15 16 15 17 19 19 21 20 19 19 20 24 22 23 25 31 30 27 28 28 27 26 24 20 18 17 21 23 22 22 24 20 23 17 16 14 13 12 14 18 19
15 18 20 16 15 8 15 15 18 22 22 23 23 17 16 20 24 25 26 26 27 28 28 28 29 29 23 20 17 18 21 21 22 23 22 19 20 15 13 11 17 17 16 19
17 13 16 15 14 15 15 16 19 23 20 17 22 21 20 20 22 22 21 23 26 22 23 27 29 29 25 16 18 18 21 22 23 22 27 22 23 18 15 16 15 14 14 15
20 10 9 4 10 19 10 16 9 13 8 12 17 17 16 12 19 14 16 18 17 24 19 19 24 25 25 23 19 19 22 22 24 23 24 24 22 22 21 19 15 16 15 14
10 12 5 10 17 16 16 14 7 9 12 17 19 12 9 20 22 21 19 23 24 26 25 15 21 22 24 23 19 23 23 22 22 24 25 24 21 15 15 17 14 14 14 16
11 10 25 23 11 12 13 13 15 13 18 15 13 13 7 25 21 21 22 21 22 23 26 28 21 20 23 21 23 17 23 23 21 23 21 22 21 21 19 19 17 15 15 14
8 21 14 19 17 14 10 11 9 3 7 10 14 12 8 11 21 20 22 24 22 21 25 25 28 22 21 22 21 18 16 22 23 21 20 20 22 22 20 19 19 18 17 17
14 6 14 21 16 13 14 11 3 6 8 7 9 10 11 17 23 22 19 20 20 20 23 26 29 22 22 21 18 18 19 21 21 21 20 21 21 23 20 18 19 19 17 18
4 5 14 22 21 21 13 7 12 5 12 13 14 17 14 21 24 22 22 20 19 18 21 26 31 19 11 17 20 18 15 19 21 20 20 21 21 20 21 22 20 19 19 18
7 5 14 15 13 15 6 9 4 9 13 15 14 13 22 22 25 24 23 19 18 19 21 22 27 12 12 14 16 15 12 17 15 19 19 18 18 18 21 21 21 19 19 19
14 14 16 16 19 18 18 17 13 9 10 16 19 25 25 19 22 24 23 16 15 15 17 19 21 23 12 10 12 13 12 16 10 12 19 20 19 19 20 20 19 19 19 20
6 9 14 18 22 24 25 23 23 16 19 17 26 26 22 19 22 20 18 16 14 12 16 18 19 19 21 13 13 14 15 14 15 13 13 17 19 19 18 17 17 17 18 17
5 10 15 21 23 24 25 25 25 22 23 23 26 25 17 21 19 18 15 13 11 13 13 16 19 20 21 21 16 15 14 14 12 10 13 12 8 17 16 16 15 16 16 18
17 13 15 22 21 19 18 22 22 20 22 17 13 12 16 20 21 15 17 15 12 8 11 12 13 17 18 19 16 13 13 13 13 12 13 14 11 11 12 14 14 16 17 16
16 16 12 15 17 17 18 7 12 6 7 9 10 12 13 18 17 11 12 16 16 16 11 8 6 11 14 18 18 15 13 15 15 15 14 14 14 13 12 12 16 14 13 15
12 10 7 6 10 15 19 6 8 10 5 11 13 14 14 19 18 2 16 18 14 14 11 7 8 4 8 12 16 15 14 14 15 16 15 14 13 12 12 13 13 12 13 13
8 9 8 10 10 9 3 9 14 16 7 14 12 15 14 14 10 8 17 15 17 15 13 14 5 5 6 4 7 13 13 13 15 16 15 14 12 12 12 12 13 12 12 13
6 4 11 10 8 10 11 16 15 10 5 11 12 14 15 6 5 14 17 13 16 14 16 14 16 8 9 7 8 9 13 13 12 12 14 14 13 11 12 11 10 12 11 11
9 8 4 6 5 8 11 20 12 14 16 10 14 13 11 7 7 12 17 13 15 15 15 15 13 14 12 12 11 13 12 13 14 12 12 13 14 11 8 12 11 11 11 9
7 6 6 7 10 21 18 13 13 15 11 13 15 14 12 11 7 11 13 14 13 14 13 14 14 14 14 14 13 12 12 13 15 14 11 12 13 12 11 10 10 9 9 7
14 15 8 12 12 15 18 15 15 11 16 19 20 14 12 12 12 14 12 13 13 13 13 14 15 15 15 14 13 13 11 12 14 15 13 11 10 12 11 8 6 7 8 8
13 16 17 19 19 18 15 9 13 14 14 14 15 16 13 13 12 12 13 12 12 12 13 12 12 13 14 15 14 13 13 13 11 13 13 11 8 10 9 8 6 6 5 4
15 18 14 14 15 9 14 13 17 16 13 12 12 13 14 13 13 13 12 11 10 11 11 11 12 13 14 15 15 14 14 14 13 11 9 9 10 9 7 7 9 2 4 6
Wind_Direction
320 294 289 319 318 306 297 288 282 282 286 286 278 277 276 276 273 269 272 263 257 257 251 232 243 232 231 218 199 190 191 193 185 192 195 191 199 188 201 196 192 183 199 198
282 285 336 341 301 292 284 280 275 278 279 273 272 270 270 265 264 260 260 268 263 263 258 255 233 237 234 228 203 191 197 191 192 194 195 200 193 193 197 202 188 190 195 199
300 290 299 294 291 287 282 279 284 287 292 288 285 276 271 265 265 265 265 258 257 260 259 262 253 238 231 234 202 194 202 189 194 197 197 203 193 201 195 196 190 191 196 207
294 278 280 273 276 284 282 286 291 291 284 275 277 281 273 279 265 242 231 238 247 246 247 258 267 254 217 235 201 197 205 192 193 201 202 200 200 193 198 191 193 198 206 202
290 294 292 286 300 299 287 302 292 287 283 284 272 264 269 262 254 253 256 263 237 235 241 245 247 258 253 212 199 196 204 194 197 193 210 203 203 202 190 188 191 211 206 210
273 259 256 272 300 277 280 273 282 273 252 254 261 260 270 266 265 263 247 242 256 260 245 235 244 248 251 232 190 194 200 202 202 195 201 210 203 201 191 194 199 193 212 202
311 329 244 355 312 307 286 311 298 285 231 242 268 258 262 326 352 329 312 330 291 242 255 258 238 236 245 244 198 192 197 212 200 197 199 214 205 204 197 194 197 190 197 214
332 317 306 328 305 294 295 308 287 300 321 309 310 270 36 29 13 8 358 355 344 345 340 282 268 271 237 246 246 191 200 208 208 201 201 202 210 205 208 200 194 199 199 202
308 288 327 303 296 315 300 298 310 290 280 270 272 306 30 1 358 3 354 349 342 338 336 326 307 259 260 241 234 230 198 201 213 206 200 202 208 209 205 204 204 201 199 193
309 302 297 292 328 285 318 294 306 280 284 300 292 308 341 11 344 351 355 340 337 337 329 323 315 301 254 248 233 227 214 201 203 211 203 204 203 206 209 209 202 202 203 201
313 283 296 310 295 309 300 308 278 292 268 303 320 317 355 9 322 339 345 330 332 333 326 316 307 292 282 256 245 228 206 208 203 208 203 203 205 206 208 208 209 206 202 201
354 284 290 291 289 275 298 20 14 341 337 309 286 291 312 343 337 349 344 337 336 326 321 313 302 309 314 283 248 240 219 217 205 205 209 205 207 203 207 212 208 206 206 204
330 301 310 298 296 48 9 332 327 315 286 282 296 293 328 350 345 339 341 346 336 332 321 323 329 328 329 331 326 309 241 211 232 209 203 208 207 207 212 212 211 205 205 204
286 271 260 273 295 306 294 291 279 259 277 292 288 293 301 344 338 329 334 350 338 330 330 341 341 332 356 353 343 330 325 324 285 250 202 203 206 213 215 212 211 208 205 205
265 275 278 279 272 279 282 282 284 269 260 257 280 288 300 323 340 334 328 357 339 345 355 353 353 356 351 15 6 7 354 341 336 293 283 212 203 212 222 216 212 212 210 209
263 268 274 278 279 276 277 278 275 263 265 262 265 277 342 326 344 332 332 352 350 353 344 1 4 3 5 356 16 15 359 351 346 318 303 288 278 202 214 214 212 214 213 213
278 265 272 273 283 294 282 272 262 251 251 264 285 327 321 339 331 341 322 358 358 334 359 344 5 9 1 358 356 8 4 3 9 12 7 347 311 298 231 214 218 213 212 211
258 270 273 278 282 270 279 273 306 336 31 29 309 333 355 333 331 297 2 21 16 4 346 349 354 18 3 354 353 351 5 7 10 10 12 10 356 340 305 270 223 224 221 218
234 257 277 283 303 279 273 355 345 317 28 1 344 349 353 334 333 296 17 2 356 353 356 356 333 26 21 2 344 355 7 9 8 5 2 2 6 354 343 321 280 235 227 225
238 249 275 295 295 294 141 249 325 307 264 346 342 347 349 338 331 349 349 347 331 348 352 345 5 326 342 346 338 357 359 9 7 355 351 355 357 3 355 341 320 308 261 235
269 257 250 259 265 286 9 352 321 290 350 335 339 340 346 338 316 315 319 322 321 343 350 346 338 0 9 5 325 4 355 357 353 345 344 346 352 359 3 352 348 330 312 280
263 262 266 237 259 270 346 327 342 331 325 342 325 341 342 332 340 326 307 329 331 341 346 350 346 344 360 1 351 346 357 341 337 343 340 338 341 351 356 8 357 350 345 327
256 272 302 306 301 315 298 288 313 316 315 320 316 321 327 321 327 306 314 329 339 339 346 347 351 349 347 356 352 344 340 346 333 324 331 336 333 340 347 5 1 355 355 354
268 269 249 256 263 280 308 303 297 316 325 334 311 305 303 313 321 314 329 332 336 346 347 349 346 344 343 347 350 344 351 341 333 321 329 322 326 333 348 353 357 357 355 353
279 296 288 283 282 292 287 298 316 325 324 327 327 322 325 312 313 317 323 329 334 339 336 342 339 336 334 337 343 343 353 343 338 326 320 320 328 330 334 350 343 341 6 346
267 265 262 264 276 231 308 328 328 321 316 331 329 324 319 322 318 324 320 327 342 327 328 331 333 330 335 333 335 341 346 339 335 327 325 315 317 318 330 338 335 351 329 348